Jackson, KY

7:49 AM EDT on May 26, 2017 (GMT -0400)
Carroll

Weather History for KJKL - October, 2013

Change the Weather History Date:

Sunday, October 6, 2013

  Actual Average Record
Temperature  
Mean Temperature 69 °F 61 °F  
Max Temperature 84 °F 71 °F 86 °F (2007)
Min Temperature 54 °F 51 °F 37 °F (1988)
Degree Days  
Heating Degree Days 0 6  
Month to date heating degree days 0 31  
Since 1 July heating degree days 30 83  
Cooling Degree Days 4 2  
Month to date cooling degree days 39 12  
Year to date cooling degree days 1065 1133  
Growing Degree Days 18 (Base 50)    
Moisture  
Dew Point 59 °F    
Average Humidity 69    
Maximum Humidity 93    
Minimum Humidity 45    
Precipitation  
Precipitation 0.20 in 0.11 in 0.95 in (2014)
Month to date precipitation 0.20 0.61  
Year to date precipitation 44.69 37.62  
Snow  
Snow 0.00 in 0.00 in - ()
Month to date snowfall 0.0 0.0  
Since 1 July snowfall 0.0 0.0  
Since 1 September snowfall 0.0 0.0  
Snow Depth 0.00 in    
Sea Level Pressure  
Sea Level Pressure 29.88 in    
Wind  
Wind Speed 5 mph (SSW)    
Max Wind Speed 16 mph    
Max Gust Speed 25 mph    
Visibility 9 miles    
Events Rain    
T = Trace of Precipitation, MM = Missing Value Source: NWS Daily Summary

Daily Weather History Graph

Daily Weather History Graph

Search for Another Location

Airport or City:

Trip Planner

Search our weather history database for the weather conditions in past years. The results will help you decide how hot, cold, wet, or windy it might be!

Date:

Astronomy

Oct. 06, 2013 Rise Set
Actual Time 7:33 AM EDT 7:08 PM EDT
Civil Twilight 7:07 AM EDT 7:34 PM EDT
Nautical Twilight 6:36 AM EDT 8:04 PM EDT
Astronomical Twilight 6:06 AM EDT 8:35 PM EDT
Moon 9:14 AM EDT (10/6) 8:10 PM EDT (10/6)
Length of Visible Light 12h 27m
Length of Day
11h 35m
Waxing Crescent, 3% of the Moon is Illuminated
Oct 6
Waxing Crescent
Oct 11
First Quarter
Oct 18
Full
Oct 26
Last Quarter
Nov 3
New

Hourly Weather History & Observations

Time (EDT) Temp. Heat Index Dew Point Humidity Pressure Visibility Wind Dir Wind Speed Gust Speed Precip Events Conditions
12:53 AM 70.0 °F - 64.0 °F 81% 29.96 in 10.0 mi Calm Calm - N/A   Clear
1:53 AM 69.1 °F - 63.0 °F 81% 29.95 in 10.0 mi Calm Calm - N/A   Clear
2:53 AM 68.0 °F - 63.0 °F 84% 29.95 in 10.0 mi SSE 3.5 mph - N/A   Clear
3:53 AM 68.0 °F - 63.0 °F 84% 29.93 in 10.0 mi SSE 4.6 mph - N/A   Clear
4:53 AM 68.0 °F - 62.1 °F 81% 29.92 in 10.0 mi Calm Calm - N/A   Clear
5:53 AM 66.9 °F - 62.1 °F 84% 29.93 in 10.0 mi SSE 3.5 mph - N/A   Clear
6:53 AM 66.0 °F - 62.1 °F 87% 29.93 in 10.0 mi SE 3.5 mph - N/A   Clear
7:53 AM 66.0 °F - 61.0 °F 84% 29.93 in 10.0 mi SSE 5.8 mph - N/A   Clear
8:53 AM 68.0 °F - 62.1 °F 81% 29.94 in 10.0 mi Calm Calm - N/A   Clear
9:53 AM 71.1 °F - 62.1 °F 73% 29.94 in 10.0 mi Variable 3.5 mph - N/A   Clear
10:53 AM 73.9 °F - 62.1 °F 66% 29.94 in 10.0 mi South 9.2 mph - N/A   Clear
11:53 AM 75.9 °F - 61.0 °F 60% 29.91 in 10.0 mi Variable 6.9 mph 20.7 mph N/A   Clear
12:53 PM 81.0 °F 81.7 °F 61.0 °F 50% 29.89 in 10.0 mi South 8.1 mph - N/A   Mostly Cloudy
1:53 PM 80.1 °F 80.9 °F 60.1 °F 50% 29.85 in 10.0 mi Variable 5.8 mph 20.7 mph N/A   Partly Cloudy
2:53 PM 81.0 °F 81.1 °F 57.9 °F 45% 29.81 in 10.0 mi South 8.1 mph 18.4 mph N/A   Partly Cloudy
3:53 PM 80.1 °F 80.6 °F 57.9 °F 47% 29.80 in 10.0 mi South 8.1 mph 16.1 mph N/A   Mostly Cloudy
4:53 PM 79.0 °F - 59.0 °F 50% 29.78 in 10.0 mi Variable 5.8 mph - N/A   Partly Cloudy
5:53 PM 78.1 °F - 57.9 °F 50% 29.77 in 10.0 mi Variable 5.8 mph - N/A   Clear
6:53 PM 75.9 °F - 57.9 °F 54% 29.77 in 10.0 mi Variable 3.5 mph - N/A   Scattered Clouds
7:53 PM 75.0 °F - 57.9 °F 55% 29.77 in 10.0 mi Calm Calm - N/A   Clear
8:53 PM 73.9 °F - 59.0 °F 59% 29.77 in 10.0 mi Variable 3.5 mph - N/A   Overcast
9:53 PM 66.0 °F - 60.1 °F 81% 29.82 in 10.0 mi NW 16.1 mph 23.0 mph 0.00 in Rain Light Rain
10:23 PM 59.0 °F - 55.4 °F 88% 29.87 in 10.0 mi WNW 10.4 mph 18.4 mph 0.00 in Rain Light Rain
10:53 PM 57.0 °F - 54.0 °F 89% 29.84 in 10.0 mi West 6.9 mph 16.1 mph 0.00 in Rain Light Rain
11:34 PM 55.4 °F - 53.6 °F 94% 29.90 in 2.5 mi West 8.1 mph - 0.07 in Rain Rain
11:41 PM 55.4 °F - 53.6 °F 94% 29.90 in 5.0 mi Variable 6.9 mph - 0.08 in Rain Rain
11:53 PM 55.0 °F - 53.1 °F 93% 29.88 in 3.0 mi West 6.9 mph - 0.11 in Rain Rain
11:55 PM 55.4 °F - 53.6 °F 94% 29.90 in 2.5 mi Variable 6.9 mph - 0.01 in Rain Heavy Rain